Tracking 30995 objects as of 7-Jul-2025
HD Live streaming from Space Station
objects crossing your sky now

STARLINK-3392

Track STARLINK-3392 now!
10-day predictions
STARLINK-3392 is classified as:


NORAD ID: 51123
Int'l Code: 2022-005V
Perigee: 546.1 km
Apogee: 547.7 km
Inclination: 53.2 °
Period: 95.4 minutes
Semi major axis: 6917 km
RCS: Unknown
Launch date: January 19, 2022
Source: United States (US)
Launch site: AIR FORCE EASTERN TEST RANGE (AFETR)
Your satellite tracking list
Your tracking list is empty




NASA's NSSDC Master Catalog

Two Line Element Set (TLE):
1 51123U 22005V   25187.56934239  .00000024  00000-0  19562-4 0  9998
2 51123  53.2183 314.0003 0001105  91.8105 268.3014 15.08837221192809
Source of the keplerian elements: AFSPC